Home   Weather   Mongomo   Past weeks

Flag for Equatorial Guinea Past Weather in Mongomo, Equatorial Guinea — Yesterday and Last 2 Weeks

75 °F

Partly sunny.

Feels Like: 75 °F
Forecast: 69 / 82 °F
Wind: 3 mph from Southwest

Location: Yaounde Airport

Current Time: Oct 27, 2016 at 9:54:04 AM

Latest Report: Oct 27, 2016 at 9:00 AM

Visibility: N/A

Pressure: 30.01 "Hg (27.89 "Hg at 638m altitude)

Humidity: 83%

Dew Point: 70 °F

Location of MongomoLocation

Past Weather in Mongomo — Graph


Mongomo Temperature Yesterday

Maximum temperature yesterday: 77 °F (at 2:00 PM)
Minimum temperature yesterday: 68 °F (at 12:00 AM)
Average temperature yesterday: 71 °F

High & Low Weather Summary for the Past Weeks

High90 °F (Oct 22, 3:00 PM)100% (Oct 13, 1:00 AM)30.15 "Hg (Oct 13, 1:00 AM)
Low66 °F (Oct 20, 3:00 AM)52% (Oct 22, 3:00 PM)29.83 "Hg (Oct 25, 3:00 PM)
Average74 °F87%30.00 "Hg
* Reported Oct 12 8:00 AM — Oct 27 8:00 AM, Mongomo, Weather by CustomWeather, © 2016

Note: Actual official high and low records may vary slightly from our data, if they occured in-between our weather recording intervals... More about our weather records


Mongomo Weather History for the Previous 24 Hours

Scroll right to see more
Time TempWeatherWind HumidityBarometerVisibility
8:00 AM
Thu, Oct 27
70 °FPartly sunny.3 mph100%30.01 "Hg5 mi
7:00 AM68 °FFog.No wind100%29.98 "Hg1 mi
6:00 AM68 °FPassing clouds.2 mph94%29.98 "Hg5 mi
5:00 AM68 °FPartly cloudy.3 mph100%29.95 "Hg4 mi
4:00 AM68 °FFog.3 mph100%29.95 "Hg1 mi
3:00 AM68 °FFog.3 mph100%29.95 "Hg0 mi
2:00 AM68 °FFog.3 mph100%29.95 "Hg1 mi
1:00 AM68 °FFog.3 mph100%29.95 "Hg1 mi
12:00 AM68 °FFog.3 mph100%29.95 "Hg0 mi
11:00 PM
Wed, Oct 26
68 °FFog.1 mph94%29.95 "Hg1 mi
10:00 PM68 °FFog.No wind100%29.95 "Hg2 mi
9:00 PM70 °FPassing clouds.No wind100%29.95 "HgN/A
8:00 PM70 °FPassing clouds.1 mph100%29.92 "HgN/A
7:00 PM72 °FPassing clouds.No wind94%29.89 "HgN/A
6:00 PM73 °FPassing clouds.No wind89%29.89 "HgN/A
5:00 PM75 °FScattered clouds.1 mph83%29.89 "HgN/A
4:00 PM77 °FPartly sunny.2 mph79%29.89 "HgN/A
3:00 PM77 °FPartly sunny.3 mph79%29.89 "HgN/A
2:00 PM77 °FPartly sunny.6 mph79%29.92 "HgN/A
1:00 PM75 °FPartly sunny.8 mph83%29.95 "HgN/A
12:00 PM75 °FPartly sunny.8 mph83%29.98 "HgN/A
11:00 AM73 °FPartly sunny.6 mph89%30.01 "HgN/A
10:00 AM73 °FPartly sunny.2 mph89%30.01 "HgN/A
9:00 AM72 °FPartly sunny.2 mph88%30.01 "HgN/A
Weather by CustomWeather, © 2016

See weather overviewHow to use our weather pages